QPF
0.22 0.29 0.36 0.39 0.64 0.81 0.83 0.94 0.86 0.69 0.38 0.23 0.12 0.06 0.02 0.01 0.00 0.00 0.00 0.00 0.00 0.00 0.00 0.00 0.00 0.00 0.00 0.00 0.00 0.00 0.00 0.00 0.00 0.00 0.00 0.00 0.00 0.01 0.00 0.01 0.04 0.04 0.03
0.19 0.18 0.14 0.26 0.30 0.38 0.43 0.45 0.43 0.32 0.16 0.09 0.06 0.04 0.02 0.01 0.00 0.00 0.00 0.00 0.00 0.00 0.00 0.00 0.00 0.00 0.00 0.00 0.00 0.00 0.00 0.00 0.00 0.00 0.00 0.00 0.00 0.00 0.00 0.04 0.05 0.04 0.06
0.06 0.04 0.03 0.08 0.25 0.44 0.38 0.22 0.19 0.13 0.07 0.04 0.03 0.01 0.01 0.01 0.01 0.00 0.00 0.00 0.00 0.00 0.00 0.00 0.00 0.00 0.00 0.00 0.00 0.00 0.00 0.00 0.00 0.00 0.00 0.00 0.00 0.00 0.00 0.01 0.03 0.04 0.06
0.00 0.01 0.02 0.04 0.12 0.24 0.24 0.17 0.14 0.11 0.05 0.03 0.02 0.01 0.00 0.00 0.00 0.00 0.00 0.00 0.00 0.00 0.00 0.00 0.00 0.00 0.00 0.00 0.00 0.00 0.00 0.00 0.00 0.00 0.00 0.01 0.01 0.01 0.00 0.00 0.01 0.04 0.08
0.00 0.00 0.00 0.00 0.01 0.04 0.09 0.12 0.16 0.20 0.11 0.06 0.04 0.04 0.02 0.01 0.01 0.01 0.01 0.01 0.00 0.00 0.00 0.00 0.00 0.00 0.00 0.00 0.00 0.00 0.00 0.00 0.00 0.00 0.00 0.01 0.01 0.01 0.01 0.00 0.00 0.02 0.02
0.01 0.00 0.00 0.00 0.01 0.04 0.05 0.07 0.13 0.18 0.15 0.11 0.09 0.10 0.11 0.09 0.07 0.06 0.06 0.05 0.03 0.02 0.01 0.00 0.00 0.00 0.00 0.00 0.00 0.00 0.00 0.00 0.00 0.00 0.01 0.01 0.01 0.01 0.01 0.01 0.01 0.03 0.02
0.00 0.01 0.01 0.01 0.01 0.03 0.03 0.03 0.05 0.08 0.10 0.09 0.09 0.14 0.22 0.27 0.26 0.21 0.15 0.10 0.07 0.04 0.02 0.01 0.01 0.00 0.00 0.00 0.00 0.00 0.00 0.00 0.00 0.01 0.01 0.01 0.01 0.02 0.03 0.02 0.02 0.03 0.02
0.00 0.00 0.01 0.01 0.01 0.01 0.01 0.01 0.01 0.01 0.02 0.03 0.05 0.07 0.11 0.18 0.26 0.29 0.26 0.23 0.22 0.14 0.06 0.02 0.01 0.01 0.00 0.00 0.00 0.00 0.00 0.00 0.00 0.00 0.00 0.00 0.00 0.01 0.02 0.02 0.02 0.01 0.01
0.00 0.00 0.00 0.00 0.00 0.00 0.00 0.00 0.00 0.00 0.00 0.00 0.01 0.01 0.02 0.03 0.06 0.10 0.14 0.20 0.28 0.24 0.15 0.08 0.05 0.02 0.01 0.00 0.00 0.00 0.00 0.00 0.00 0.00 0.00 0.00 0.00 0.01 0.01 0.04 0.05 0.03 0.01
0.00 0.00 0.00 0.00 0.00 0.00 0.00 0.00 0.00 0.00 0.00 0.00 0.00 0.00 0.01 0.01 0.02 0.03 0.04 0.06 0.10 0.13 0.13 0.10 0.08 0.05 0.03 0.02 0.01 0.00 0.00 0.00 0.00 0.00 0.00 0.00 0.01 0.01 0.02 0.03 0.05 0.06 0.03
0.00 0.00 0.00 0.00 0.00 0.00 0.00 0.00 0.00 0.00 0.00 0.00 0.00 0.00 0.00 0.00 0.00 0.01 0.01 0.01 0.01 0.02 0.03 0.04 0.05 0.04 0.03 0.02 0.01 0.01 0.00 0.00 0.00 0.00 0.00 0.00 0.01 0.01 0.02 0.02 0.02 0.03 0.05
0.00 0.00 0.00 0.00 0.00 0.00 0.00 0.00 0.00 0.00 0.00 0.00 0.00 0.00 0.00 0.00 0.00 0.00 0.00 0.00 0.00 0.00 0.00 0.00 0.01 0.01 0.01 0.02 0.02 0.02 0.01 0.01 0.00 0.00 0.00 0.00 0.01 0.01 0.01 0.00 0.00 0.01 0.04
0.00 0.00 0.00 0.00 0.00 0.00 0.00 0.00 0.00 0.00 0.00 0.00 0.00 0.00 0.00 0.00 0.00 0.00 0.00 0.00 0.00 0.00 0.00 0.00 0.00 0.00 0.01 0.02 0.03 0.02 0.01 0.01 0.01 0.00 0.00 0.01 0.01 0.01 0.00 0.00 0.00 0.00 0.02
0.00 0.00 0.00 0.00 0.00 0.00 0.00 0.00 0.00 0.00 0.00 0.00 0.00 0.01 0.01 0.00 0.00 0.00 0.00 0.00 0.00 0.00 0.00 0.00 0.00 0.00 0.00 0.02 0.04 0.04 0.03 0.02 0.01 0.01 0.00 0.00 0.00 0.00 0.00 0.00 0.00 0.00 0.01
0.00 0.00 0.00 0.00 0.00 0.00 0.00 0.00 0.00 0.00 0.00 0.02 0.01 0.00 0.00 0.00 0.00 0.00 0.00 0.00 0.00 0.00 0.00 0.00 0.00 0.00 0.00 0.01 0.02 0.05 0.05 0.05 0.04 0.02 0.02 0.01 0.00 0.00 0.00 0.00 0.00 0.01 0.02
0.00 0.00 0.00 0.00 0.00 0.00 0.00 0.00 0.00 0.00 0.00 0.01 0.01 0.01 0.01 0.02 0.02 0.02 0.02 0.03 0.02 0.01 0.02 0.01 0.01 0.00 0.01 0.01 0.02 0.03 0.05 0.09 0.10 0.07 0.04 0.02 0.01 0.00 0.00 0.00 0.00 0.00 0.01
0.00 0.00 0.00 0.00 0.00 0.00 0.00 0.00 0.00 0.00 0.00 0.00 0.00 0.00 0.01 0.01 0.02 0.04 0.05 0.05 0.04 0.03 0.04 0.04 0.02 0.01 0.01 0.01 0.01 0.01 0.02 0.06 0.11 0.13 0.10 0.05 0.02 0.01 0.00 0.00 0.00 0.00 0.00
0.00 0.00 0.00 0.00 0.00 0.00 0.00 0.00 0.00 0.00 0.00 0.00 0.00 0.01 0.01 0.02 0.02 0.02 0.03 0.03 0.04 0.05 0.05 0.04 0.03 0.02 0.01 0.01 0.01 0.01 0.04 0.05 0.05 0.09 0.12 0.09 0.04 0.01 0.00 0.00 0.00 0.00 0.00
0.00 0.00 0.00 0.00 0.00 0.00 0.00 0.00 0.00 0.00 0.01 0.01 0.02 0.02 0.03 0.03 0.03 0.02 0.02 0.02 0.04 0.03 0.03 0.02 0.02 0.03 0.02 0.02 0.02 0.02 0.03 0.04 0.04 0.06 0.10 0.10 0.05 0.01 0.00 0.00 0.00 0.00 0.00
0.00 0.00 0.00 0.00 0.00 0.00 0.00 0.01 0.01 0.02 0.03 0.04 0.05 0.05 0.05 0.04 0.03 0.02 0.01 0.01 0.01 0.02 0.01 0.01 0.01 0.02 0.02 0.02 0.02 0.02 0.02 0.04 0.04 0.05 0.10 0.12 0.07 0.02 0.00 0.00 0.00 0.00 0.00
0.00 0.00 0.00 0.00 0.00 0.00 0.01 0.03 0.04 0.05 0.05 0.05 0.06 0.05 0.04 0.02 0.02 0.01 0.01 0.01 0.00 0.00 0.00 0.00 0.01 0.02 0.02 0.01 0.01 0.02 0.03 0.03 0.05 0.07 0.11 0.15 0.11 0.04 0.01 0.00 0.00 0.01 0.00
0.00 0.00 0.00 0.00 0.00 0.01 0.03 0.04 0.04 0.04 0.04 0.04 0.04 0.02 0.02 0.01 0.01 0.00 0.00 0.00 0.00 0.00 0.01 0.01 0.01 0.01 0.02 0.01 0.00 0.01 0.02 0.04 0.06 0.13 0.18 0.18 0.18 0.07 0.02 0.01 0.01 0.01 0.00
0.00 0.00 0.00 0.01 0.01 0.02 0.04 0.07 0.07 0.06 0.05 0.04 0.03 0.03 0.02 0.02 0.02 0.01 0.01 0.01 0.01 0.01 0.02 0.02 0.01 0.00 0.02 0.02 0.00 0.00 0.01 0.03 0.06 0.15 0.26 0.29 0.26 0.14 0.05 0.03 0.02 0.01 0.00
0.00 0.01 0.01 0.02 0.03 0.04 0.06 0.09 0.11 0.10 0.09 0.06 0.05 0.04 0.04 0.03 0.03 0.02 0.02 0.02 0.02 0.03 0.03 0.03 0.02 0.02 0.02 0.02 0.00 0.00 0.00 0.01 0.03 0.13 0.26 0.38 0.36 0.22 0.10 0.06 0.03 0.01 0.00
0.01 0.01 0.03 0.04 0.04 0.05 0.06 0.08 0.10 0.11 0.10 0.08 0.06 0.04 0.03 0.02 0.02 0.02 0.01 0.02 0.03 0.04 0.05 0.05 0.03 0.02 0.02 0.00 0.00 0.00 0.00 0.00 0.02 0.10 0.30 0.43 0.43 0.30 0.14 0.06 0.03 0.01 0.00
0.02 0.03 0.03 0.03 0.04 0.04 0.04 0.04 0.04 0.07 0.09 0.09 0.06 0.05 0.04 0.04 0.03 0.02 0.02 0.02 0.02 0.04 0.06 0.09 0.05 0.01 0.00 0.00 0.00 0.00 0.00 0.00 0.02 0.14 0.32 0.42 0.39 0.29 0.16 0.06 0.02 0.01 0.00
MSLP
1012.84 1012.57 1012.29 1012.02 1011.76 1011.52 1011.29 1011.09 1010.91 1010.75 1010.58 1010.42 1010.24 1010.06 1009.87 1009.68 1009.50 1009.36 1009.26 1009.23 1009.26 1009.37 1009.54 1009.75 1010.00 1010.28 1010.56 1010.84 1011.11 1011.37 1011.62 1011.84 1012.02 1012.15 1012.20 1012.16 1012.02 1011.78 1011.44 1011.05 1010.63 1010.22 1009.88
1013.04 1012.67 1012.32 1011.99 1011.68 1011.41 1011.17 1010.98 1010.83 1010.70 1010.60 1010.48 1010.35 1010.18 1009.98 1009.74 1009.50 1009.28 1009.10 1008.99 1008.97 1009.04 1009.21 1009.45 1009.74 1010.06 1010.38 1010.70 1011.01 1011.29 1011.55 1011.77 1011.96 1012.09 1012.15 1012.12 1011.99 1011.75 1011.41 1010.99 1010.54 1010.10 1009.70
1013.05 1012.67 1012.32 1011.99 1011.70 1011.43 1011.21 1011.04 1010.91 1010.82 1010.74 1010.66 1010.55 1010.38 1010.16 1009.88 1009.57 1009.27 1009.01 1008.82 1008.74 1008.77 1008.90 1009.14 1009.44 1009.78 1010.13 1010.47 1010.80 1011.10 1011.38 1011.62 1011.83 1011.99 1012.08 1012.08 1011.98 1011.76 1011.43 1011.02 1010.56 1010.08 1009.64
1012.97 1012.64 1012.34 1012.08 1011.83 1011.61 1011.42 1011.26 1011.15 1011.07 1011.00 1010.92 1010.80 1010.63 1010.38 1010.07 1009.71 1009.34 1009.01 1008.75 1008.60 1008.57 1008.66 1008.86 1009.14 1009.47 1009.82 1010.17 1010.51 1010.82 1011.12 1011.39 1011.63 1011.83 1011.96 1012.01 1011.95 1011.77 1011.48 1011.09 1010.63 1010.14 1009.65
1012.88 1012.63 1012.43 1012.25 1012.07 1011.90 1011.73 1011.58 1011.47 1011.37 1011.29 1011.20 1011.07 1010.88 1010.62 1010.29 1009.90 1009.49 1009.11 1008.79 1008.57 1008.48 1008.51 1008.65 1008.88 1009.18 1009.50 1009.83 1010.16 1010.48 1010.79 1011.08 1011.36 1011.59 1011.77 1011.87 1011.87 1011.75 1011.50 1011.14 1010.70 1010.20 1009.70
1012.85 1012.69 1012.58 1012.48 1012.36 1012.23 1012.07 1011.92 1011.77 1011.65 1011.54 1011.43 1011.29 1011.10 1010.84 1010.50 1010.11 1009.69 1009.29 1008.94 1008.67 1008.52 1008.48 1008.55 1008.71 1008.94 1009.21 1009.50 1009.80 1010.11 1010.41 1010.72 1011.01 1011.28 1011.49 1011.64 1011.69 1011.61 1011.42 1011.10 1010.69 1010.22 1009.71
1012.89 1012.80 1012.76 1012.71 1012.63 1012.51 1012.34 1012.16 1011.99 1011.83 1011.69 1011.55 1011.41 1011.23 1010.99 1010.69 1010.32 1009.93 1009.53 1009.17 1008.87 1008.67 1008.57 1008.57 1008.65 1008.79 1008.99 1009.21 1009.46 1009.73 1010.01 1010.30 1010.59 1010.86 1011.10 1011.28 1011.36 1011.33 1011.18 1010.91 1010.55 1010.12 1009.65
1013.01 1012.95 1012.93 1012.90 1012.82 1012.68 1012.48 1012.26 1012.04 1011.84 1011.67 1011.53 1011.39 1011.24 1011.04 1010.79 1010.49 1010.14 1009.78 1009.44 1009.14 1008.91 1008.75 1008.68 1008.67 1008.73 1008.84 1008.98 1009.15 1009.36 1009.59 1009.84 1010.10 1010.36 1010.59 1010.77 1010.87 1010.87 1010.76 1010.55 1010.24 1009.87 1009.46
1013.19 1013.13 1013.09 1013.02 1012.90 1012.70 1012.46 1012.18 1011.91 1011.68 1011.49 1011.34 1011.22 1011.10 1010.96 1010.78 1010.55 1010.27 1009.97 1009.67 1009.39 1009.15 1008.96 1008.83 1008.76 1008.73 1008.75 1008.80 1008.89 1009.01 1009.17 1009.35 1009.56 1009.78 1009.97 1010.13 1010.23 1010.24 1010.16 1010.00 1009.76 1009.46 1009.14
1013.42 1013.30 1013.20 1013.06 1012.86 1012.59 1012.28 1011.95 1011.63 1011.36 1011.15 1011.00 1010.89 1010.81 1010.72 1010.60 1010.45 1010.25 1010.02 1009.78 1009.54 1009.32 1009.12 1008.96 1008.84 1008.74 1008.68 1008.65 1008.65 1008.68 1008.75 1008.86 1009.00 1009.14 1009.29 1009.41 1009.48 1009.49 1009.43 1009.31 1009.13 1008.92 1008.70
1013.66 1013.46 1013.25 1013.01 1012.72 1012.37 1011.98 1011.59 1011.23 1010.93 1010.70 1010.54 1010.43 1010.37 1010.31 1010.24 1010.15 1010.02 1009.87 1009.69 1009.51 1009.33 1009.16 1008.99 1008.85 1008.71 1008.59 1008.49 1008.42 1008.37 1008.35 1008.37 1008.43 1008.50 1008.58 1008.64 1008.68 1008.68 1008.64 1008.55 1008.43 1008.30 1008.18
1013.87 1013.57 1013.25 1012.90 1012.50 1012.07 1011.61 1011.17 1010.77 1010.44 1010.18 1009.99 1009.87 1009.80 1009.75 1009.70 1009.64 1009.57 1009.48 1009.37 1009.26 1009.13 1009.01 1008.88 1008.74 1008.60 1008.45 1008.30 1008.17 1008.05 1007.96 1007.90 1007.88 1007.88 1007.89 1007.90 1007.91 1007.89 1007.85 1007.79 1007.72 1007.66 1007.63
1014.01 1013.60 1013.17 1012.71 1012.22 1011.72 1011.21 1010.73 1010.29 1009.92 1009.63 1009.41 1009.25 1009.14 1009.06 1009.00 1008.95 1008.91 1008.86 1008.82 1008.78 1008.73 1008.66 1008.59 1008.49 1008.36 1008.21 1008.04 1007.87 1007.71 1007.56 1007.44 1007.35 1007.29 1007.25 1007.22 1007.19 1007.16 1007.12 1007.08 1007.05 1007.05 1007.08
1014.02 1013.51 1012.98 1012.44 1011.88 1011.32 1010.78 1010.27 1009.81 1009.41 1009.08 1008.81 1008.59 1008.42 1008.29 1008.19 1008.13 1008.09 1008.08 1008.09 1008.11 1008.13 1008.15 1008.13 1008.09 1008.00 1007.86 1007.70 1007.51 1007.32 1007.13 1006.97 1006.84 1006.74 1006.66 1006.61 1006.56 1006.52 1006.49 1006.46 1006.46 1006.49 1006.58
1013.86 1013.27 1012.67 1012.06 1011.45 1010.87 1010.31 1009.79 1009.33 1008.91 1008.54 1008.21 1007.93 1007.69 1007.49 1007.34 1007.24 1007.20 1007.20 1007.25 1007.33 1007.42 1007.50 1007.55 1007.56 1007.51 1007.41 1007.25 1007.06 1006.86 1006.66 1006.47 1006.32 1006.20 1006.12 1006.05 1006.01 1005.97 1005.95 1005.94 1005.96 1006.01 1006.13
1013.52 1012.87 1012.21 1011.56 1010.94 1010.35 1009.80 1009.30 1008.83 1008.40 1008.00 1007.63 1007.29 1006.98 1006.72 1006.51 1006.37 1006.31 1006.32 1006.39 1006.51 1006.65 1006.79 1006.89 1006.94 1006.93 1006.84 1006.70 1006.52 1006.31 1006.11 1005.92 1005.77 1005.65 1005.58 1005.53 1005.50 1005.48 1005.48 1005.50 1005.53 1005.61 1005.74
1013.01 1012.31 1011.62 1010.96 1010.34 1009.77 1009.25 1008.77 1008.32 1007.89 1007.47 1007.07 1006.69 1006.33 1006.01 1005.76 1005.58 1005.50 1005.50 1005.58 1005.72 1005.89 1006.06 1006.19 1006.26 1006.27 1006.20 1006.06 1005.88 1005.68 1005.48 1005.30 1005.16 1005.07 1005.02 1005.00 1005.01 1005.03 1005.06 1005.11 1005.18 1005.28 1005.43
1012.37 1011.65 1010.95 1010.30 1009.70 1009.15 1008.66 1008.21 1007.78 1007.37 1006.95 1006.53 1006.12 1005.73 1005.39 1005.10 1004.90 1004.80 1004.79 1004.87 1005.01 1005.18 1005.34 1005.48 1005.55 1005.55 1005.48 1005.34 1005.16 1004.96 1004.77 1004.62 1004.51 1004.45 1004.44 1004.46 1004.52 1004.59 1004.67 1004.76 1004.87 1005.01 1005.19
1011.70 1010.97 1010.28 1009.64 1009.06 1008.54 1008.08 1007.65 1007.24 1006.84 1006.43 1006.02 1005.60 1005.20 1004.84 1004.54 1004.33 1004.21 1004.18 1004.24 1004.36 1004.51 1004.65 1004.76 1004.81 1004.79 1004.71 1004.56 1004.39 1004.21 1004.04 1003.91 1003.84 1003.82 1003.85 1003.93 1004.04 1004.17 1004.31 1004.46 1004.62 1004.81 1005.04
1011.08 1010.36 1009.68 1009.05 1008.49 1007.99 1007.54 1007.12 1006.72 1006.33 1005.92 1005.50 1005.09 1004.69 1004.33 1004.03 1003.81 1003.68 1003.64 1003.67 1003.75 1003.86 1003.96 1004.03 1004.05 1004.01 1003.91 1003.77 1003.61 1003.45 1003.32 1003.23 1003.20 1003.23 1003.31 1003.44 1003.60 1003.79 1003.99 1004.20 1004.43 1004.68 1004.97
1010.58 1009.88 1009.22 1008.60 1008.04 1007.54 1007.08 1006.65 1006.23 1005.82 1005.41 1004.99 1004.57 1004.18 1003.83 1003.53 1003.30 1003.16 1003.09 1003.09 1003.13 1003.19 1003.25 1003.28 1003.27 1003.22 1003.12 1003.00 1002.87 1002.75 1002.67 1002.63 1002.66 1002.73 1002.87 1003.04 1003.25 1003.48 1003.74 1004.01 1004.30 1004.63 1004.99
1010.26 1009.58 1008.93 1008.32 1007.74 1007.21 1006.71 1006.24 1005.79 1005.34 1004.90 1004.46 1004.04 1003.64 1003.29 1002.99 1002.76 1002.60 1002.51 1002.47 1002.47 1002.49 1002.50 1002.51 1002.48 1002.43 1002.36 1002.28 1002.20 1002.15 1002.14 1002.17 1002.25 1002.38 1002.56 1002.77 1003.01 1003.28 1003.57 1003.89 1004.25 1004.64 1005.07
1010.09 1009.44 1008.80 1008.18 1007.58 1007.00 1006.44 1005.90 1005.38 1004.88 1004.39 1003.92 1003.48 1003.07 1002.71 1002.41 1002.17 1001.99 1001.87 1001.80 1001.76 1001.74 1001.73 1001.72 1001.70 1001.68 1001.66 1001.65 1001.65 1001.69 1001.76 1001.86 1002.01 1002.19 1002.39 1002.63 1002.89 1003.17 1003.49 1003.84 1004.24 1004.69 1005.18
1010.04 1009.42 1008.79 1008.14 1007.49 1006.85 1006.22 1005.61 1005.01 1004.44 1003.89 1003.38 1002.91 1002.48 1002.11 1001.80 1001.55 1001.35 1001.21 1001.10 1001.04 1001.00 1000.97 1000.97 1000.98 1001.00 1001.05 1001.13 1001.23 1001.36 1001.52 1001.71 1001.91 1002.13 1002.36 1002.61 1002.87 1003.15 1003.47 1003.84 1004.26 1004.75 1005.29
1010.04 1009.44 1008.80 1008.13 1007.44 1006.74 1006.03 1005.33 1004.66 1004.01 1003.41 1002.85 1002.35 1001.91 1001.53 1001.21 1000.95 1000.74 1000.57 1000.45 1000.36 1000.31 1000.29 1000.30 1000.35 1000.44 1000.57 1000.73 1000.93 1001.16 1001.41 1001.66 1001.92 1002.17 1002.41 1002.65 1002.90 1003.17 1003.48 1003.84 1004.27 1004.78 1005.35
1010.03 1009.44 1008.79 1008.10 1007.36 1006.60 1005.82 1005.06 1004.31 1003.61 1002.96 1002.38 1001.86 1001.40 1001.02 1000.70 1000.44 1000.22 1000.05 999.92 999.83 999.77 999.76 999.80 999.89 1000.03 1000.23 1000.47 1000.75 1001.06 1001.37 1001.68 1001.97 1002.24 1002.48 1002.70 1002.93 1003.17 1003.45 1003.80 1004.23 1004.74 1005.33
Thickness
5741 5745 5750 5753 5751 5748 5746 5743 5732 5726 5726 5726 5727 5730 5732 5734 5734 5734 5733 5732 5731 5729 5727 5725 5725 5726 5724 5722 5722 5721 5720 5719 5718 5714 5713 5716 5720 5721 5723 5723 5722 5724 5726
5742 5743 5743 5743 5743 5740 5737 5732 5726 5722 5722 5723 5727 5731 5731 5730 5730 5729 5726 5726 5725 5725 5724 5722 5720 5720 5719 5718 5717 5716 5715 5714 5714 5710 5706 5703 5707 5715 5720 5721 5721 5722 5723
5746 5745 5742 5738 5736 5731 5727 5723 5718 5716 5715 5719 5723 5726 5726 5725 5724 5722 5721 5722 5722 5721 5719 5718 5717 5715 5714 5713 5714 5712 5709 5707 5708 5708 5704 5698 5694 5701 5711 5716 5717 5718 5719
5739 5735 5731 5728 5724 5720 5718 5715 5712 5710 5711 5714 5715 5715 5715 5715 5719 5720 5721 5721 5720 5718 5716 5715 5714 5713 5712 5711 5712 5711 5707 5704 5701 5702 5704 5702 5700 5697 5698 5707 5712 5713 5713
5725 5721 5719 5716 5713 5711 5709 5707 5704 5701 5700 5702 5704 5706 5706 5708 5712 5715 5715 5714 5714 5714 5713 5711 5710 5709 5709 5707 5706 5706 5705 5702 5698 5697 5698 5698 5699 5699 5694 5694 5701 5706 5708
5714 5710 5708 5706 5702 5698 5696 5693 5691 5689 5689 5689 5690 5692 5694 5695 5698 5700 5702 5704 5704 5706 5707 5706 5706 5705 5704 5703 5700 5700 5700 5698 5696 5695 5694 5694 5694 5693 5692 5691 5693 5696 5703
5705 5703 5700 5695 5691 5688 5685 5683 5680 5678 5678 5678 5677 5677 5677 5678 5679 5681 5685 5688 5690 5693 5695 5697 5698 5699 5698 5698 5695 5694 5694 5693 5691 5691 5692 5692 5693 5694 5692 5691 5691 5691 5696
5695 5693 5690 5687 5682 5679 5676 5674 5670 5666 5665 5664 5664 5663 5663 5662 5663 5665 5667 5670 5674 5678 5683 5686 5689 5691 5691 5690 5689 5688 5688 5687 5685 5685 5687 5688 5690 5692 5692 5690 5689 5689 5688
5684 5681 5677 5674 5668 5664 5661 5658 5656 5653 5650 5648 5646 5646 5646 5647 5649 5651 5653 5655 5658 5662 5667 5671 5674 5677 5679 5680 5681 5681 5681 5681 5680 5679 5681 5683 5686 5688 5690 5691 5690 5687 5684
5671 5670 5665 5661 5656 5651 5645 5640 5636 5635 5636 5634 5632 5631 5630 5630 5631 5633 5637 5640 5643 5646 5649 5651 5654 5660 5665 5669 5671 5673 5675 5674 5675 5674 5675 5678 5681 5683 5686 5688 5688 5688 5686
5662 5659 5656 5651 5645 5638 5631 5624 5619 5616 5615 5615 5615 5614 5615 5615 5615 5616 5619 5622 5626 5628 5631 5633 5637 5642 5648 5654 5659 5663 5666 5667 5668 5669 5670 5673 5677 5678 5681 5683 5684 5685 5685
5651 5646 5641 5635 5629 5624 5619 5612 5605 5598 5595 5592 5589 5589 5590 5591 5593 5596 5600 5603 5606 5609 5612 5615 5618 5624 5630 5638 5644 5650 5656 5658 5660 5663 5666 5669 5672 5674 5676 5677 5679 5680 5682
5635 5627 5622 5616 5610 5605 5600 5596 5591 5585 5582 5577 5572 5569 5567 5566 5568 5572 5576 5580 5584 5588 5592 5595 5600 5605 5611 5618 5626 5634 5641 5647 5651 5656 5660 5663 5666 5668 5670 5673 5674 5676 5678
5619 5612 5605 5599 5593 5588 5582 5578 5574 5571 5568 5566 5563 5559 5556 5556 5557 5558 5558 5559 5562 5565 5572 5576 5581 5587 5593 5601 5608 5617 5625 5633 5640 5647 5653 5657 5661 5663 5666 5668 5670 5672 5676
5608 5601 5594 5587 5582 5577 5573 5570 5568 5565 5563 5560 5557 5556 5556 5555 5554 5552 5552 5552 5550 5551 5554 5558 5562 5568 5576 5584 5592 5599 5609 5618 5627 5637 5644 5651 5656 5660 5662 5664 5666 5669 5674
5599 5593 5587 5582 5577 5573 5570 5566 5562 5559 5556 5553 5552 5552 5551 5550 5549 5548 5547 5546 5544 5544 5544 5545 5548 5551 5558 5568 5576 5583 5591 5603 5614 5624 5635 5642 5649 5653 5657 5661 5663 5667 5670
5595 5590 5584 5578 5574 5569 5565 5559 5555 5552 5547 5544 5544 5544 5543 5543 5542 5542 5540 5538 5538 5538 5537 5537 5539 5541 5545 5550 5558 5566 5575 5587 5600 5612 5623 5632 5640 5644 5648 5652 5656 5661 5666
5589 5584 5578 5573 5568 5562 5555 5548 5543 5538 5533 5530 5529 5529 5530 5530 5530 5529 5529 5529 5529 5529 5530 5532 5534 5535 5538 5541 5545 5551 5560 5571 5585 5599 5612 5621 5629 5634 5639 5642 5646 5652 5657
5581 5575 5569 5563 5555 5546 5537 5529 5523 5517 5512 5509 5508 5508 5509 5510 5512 5513 5515 5516 5516 5518 5520 5525 5528 5530 5533 5537 5540 5542 5546 5556 5570 5586 5600 5612 5620 5627 5631 5635 5638 5643 5647
5575 5568 5562 5553 5541 5529 5518 5508 5501 5495 5491 5490 5490 5490 5490 5492 5494 5497 5501 5503 5505 5508 5511 5515 5520 5525 5529 5533 5537 5538 5539 5546 5558 5572 5588 5603 5612 5619 5624 5629 5632 5636 5638
5569 5561 5550 5538 5526 5514 5502 5492 5484 5478 5474 5470 5471 5473 5474 5476 5479 5483 5486 5489 5493 5497 5501 5506 5512 5519 5525 5530 5534 5536 5536 5538 5545 5558 5575 5591 5602 5610 5616 5622 5626 5630 5633
5562 5552 5541 5530 5518 5504 5492 5484 5475 5469 5461 5457 5456 5458 5461 5464 5470 5472 5474 5478 5482 5486 5491 5496 5504 5513 5521 5527 5531 5533 5535 5536 5537 5547 5562 5577 5589 5597 5604 5611 5616 5620 5624
5555 5547 5535 5524 5511 5496 5483 5474 5468 5459 5452 5447 5447 5449 5452 5456 5459 5462 5465 5468 5473 5478 5484 5490 5498 5508 5515 5522 5527 5529 5531 5531 5532 5539 5551 5566 5579 5586 5593 5599 5605 5611 5615
5552 5541 5530 5518 5506 5493 5480 5470 5463 5455 5448 5444 5444 5445 5447 5450 5453 5456 5459 5462 5467 5472 5479 5486 5493 5501 5508 5517 5522 5524 5526 5527 5528 5533 5542 5555 5568 5576 5583 5589 5596 5605 5608
5547 5536 5524 5513 5502 5491 5481 5472 5463 5455 5448 5444 5444 5445 5445 5447 5449 5452 5454 5458 5464 5470 5476 5483 5489 5496 5505 5516 5521 5524 5525 5526 5527 5529 5535 5546 5558 5567 5573 5582 5589 5595 5599
5543 5532 5522 5511 5501 5491 5482 5474 5466 5458 5451 5447 5445 5444 5444 5445 5446 5448 5452 5457 5462 5469 5474 5480 5487 5494 5503 5512 5516 5518 5521 5522 5524 5527 5532 5541 5551 5560 5568 5576 5582 5588 5592